| time (UTC) | temp F | wind direction | speed MPH | gust MPH | rain 1hr in | rain 24hr in | rain mn in | humidity % | barometer mb |
| 20260505113057 | 58 | 305 | 0.0 | 4.0 | 0.00 | 0.00 | 0.00 | 71 | 1022.7 |
| 20260505111557 | 58 | 263 | 1.0 | 3.0 | 0.00 | 0.00 | 0.00 | 71 | 1022.6 |
| 20260505101608 | 58 | 325 | 0.0 | 0.0 | 0.00 | 0.00 | 0.00 | 73 | 1022.4 |
| 20260505100104 | 59 | 263 | 0.0 | 0.0 | 0.00 | 0.00 | 0.00 | 73 | 1022.5 |
| 20260505094553 | 59 | 263 | 0.0 | 0.0 | 0.00 | 0.00 | 0.00 | 73 | 1022.4 |
| 20260505093102 | 59 | 263 | 0.0 | 0.0 | 0.00 | 0.00 | 0.00 | 73 | 1022.5 |
| 20260505091554 | 59 | 263 | 0.0 | 0.0 | 0.00 | 0.00 | 0.00 | 73 | 1022.4 |
| 20260505090052 | 59 | 262 | 0.0 | 0.0 | 0.00 | 0.00 | 0.00 | 73 | 1022.2 |
| 20260505084553 | 59 | 262 | 0.0 | 3.0 | 0.00 | 0.00 | 0.00 | 73 | 1022.3 |
| 20260505083050 | 59 | 263 | 0.0 | 0.0 | 0.00 | 0.00 | 0.00 | 73 | 1022.1 |
| 20260505081601 | 59 | 263 | 0.0 | 3.0 | 0.00 | 0.00 | 0.00 | 72 | 1021.9 |
| 20260505080058 | 60 | 265 | 0.0 | 2.0 | 0.00 | 0.00 | 0.00 | 71 | 1021.7 |
| 20260505074546 | 60 | 252 | 1.0 | 4.0 | 0.00 | 0.00 | 0.00 | 71 | 1021.5 |
| 20260505073048 | 60 | 268 | 1.0 | 4.0 | 0.00 | 0.00 | 0.00 | 69 | 1021.4 |
| 20260505071551 | 60 | 273 | 1.0 | 4.0 | 0.00 | 0.00 | 0.00 | 67 | 1021.3 |
| 20260505070045 | 60 | 245 | 1.0 | 4.0 | 0.00 | 0.00 | 0.00 | 67 | 1021.3 |
| 20260505064543 | 61 | 262 | 1.0 | 4.0 | 0.00 | 0.00 | 0.00 | 66 | 1021.2 |
| 20260505063048 | 61 | 260 | 2.0 | 3.0 | 0.00 | 0.00 | 0.00 | 64 | 1021.1 |
| 20260505061545 | 61 | 253 | 0.0 | 3.0 | 0.00 | 0.00 | 0.00 | 65 | 1021.1 |
| 20260505060042 | 60 | 277 | 2.0 | 4.0 | 0.00 | 0.00 | 0.00 | 66 | 1020.9 |
| 20260505054546 | 60 | 261 | 2.0 | 5.0 | 0.00 | 0.00 | 0.00 | 66 | 1020.8 |
| 20260505053044 | 60 | 255 | 1.0 | 5.0 | 0.00 | 0.00 | 0.00 | 66 | 1020.7 |
| 20260505051541 | 60 | 275 | 2.0 | 7.0 | 0.00 | 0.00 | 0.00 | 66 | 1020.6 |
| 20260505041535 | 60 | 237 | 2.0 | 7.0 | 0.00 | 0.00 | 0.00 | 65 | 1020.1 |
| 20260505040035 | 61 | 304 | 2.0 | 6.0 | 0.00 | 0.00 | 0.00 | 66 | 1019.9 |
| 20260505034534 | 60 | 271 | 2.0 | 6.0 | 0.00 | 0.00 | 0.00 | 68 | 1019.8 |
| 20260505033034 | 60 | 219 | 2.0 | 7.0 | 0.00 | 0.00 | 0.00 | 68 | 1019.9 |
| 20260505031538 | 60 | 321 | 1.0 | 6.0 | 0.00 | 0.00 | 0.00 | 69 | 1019.9 |
| 20260505030033 | 61 | 226 | 4.0 | 8.0 | 0.00 | 0.00 | 0.00 | 67 | 1020.0 |
| 20260505024533 | 61 | 251 | 2.0 | 9.0 | 0.00 | 0.00 | 0.00 | 68 | 1019.9 |
| 20260505023035 | 60 | 246 | 3.0 | 9.0 | 0.00 | 0.00 | 0.00 | 67 | 1020.0 |
| 20260505021535 | 60 | 214 | 3.0 | 12.0 | 0.00 | 0.00 | 0.00 | 69 | 1020.0 |
| 20260505020037 | 60 | 287 | 3.0 | 8.0 | 0.00 | 0.00 | 0.00 | 70 | 1020.2 |
| 20260505014532 | 60 | 323 | 2.0 | 11.0 | 0.00 | 0.00 | 0.00 | 70 | 1020.1 |
| 20260505013032 | 61 | 208 | 4.0 | 12.0 | 0.00 | 0.00 | 0.00 | 69 | 1020.3 |
| 20260505011535 | 61 | 249 | 3.0 | 11.0 | 0.00 | 0.00 | 0.00 | 71 | 1020.4 |
| 20260505010045 | 60 | 254 | 3.0 | 10.0 | 0.00 | 0.00 | 0.00 | 72 | 1020.4 |
| 20260505004525 | 59 | 360 | 3.0 | 11.0 | 0.00 | 0.00 | 0.00 | 73 | 1020.1 |
| 20260505003024 | 59 | 295 | 2.0 | 11.0 | 0.00 | 0.00 | 0.00 | 74 | 1019.9 |
| 20260505001523 | 59 | 277 | 3.0 | 9.0 | 0.00 | 0.00 | 0.00 | 76 | 1019.8 |
| 20260505000035 | 58 | 284 | 3.0 | 9.0 | 0.00 | 0.00 | 0.00 | 77 | 1019.6 |
| 20260504234521 | 58 | 292 | 3.0 | 9.0 | 0.00 | 0.00 | 0.00 | 77 | 1019.6 |
| 20260504233020 | 58 | 297 | 2.0 | 9.0 | 0.00 | 0.00 | 0.00 | 77 | 1019.5 |
| 20260504231519 | 58 | 234 | 3.0 | 8.0 | 0.00 | 0.00 | 0.00 | 78 | 1019.3 |
| 20260504230034 | 58 | 256 | 3.0 | 9.0 | 0.00 | 0.00 | 0.00 | 79 | 1019.2 |
| 20260504224517 | 58 | 260 | 2.0 | 10.0 | 0.00 | 0.00 | 0.00 | 80 | 1019.1 |
| 20260504223016 | 57 | 261 | 2.0 | 8.0 | 0.00 | 0.00 | 0.00 | 81 | 1018.8 |
| 20260504221534 | 57 | 274 | 1.0 | 8.0 | 0.00 | 0.00 | 0.00 | 82 | 1018.4 |
| 20260504220013 | 57 | 277 | 2.0 | 6.0 | 0.00 | 0.00 | 0.00 | 83 | 1018.2 |
| 20260504214511 | 57 | 279 | 2.0 | 6.0 | 0.00 | 0.00 | 0.00 | 83 | 1017.9 |
| 20260504213009 | 57 | 296 | 2.0 | 10.0 | 0.00 | 0.00 | 0.00 | 83 | 1017.6 |
| 20260504211507 | 57 | 273 | 1.0 | 6.0 | 0.00 | 0.00 | 0.00 | 83 | 1017.3 |
| 20260504210005 | 57 | 254 | 3.0 | 7.0 | 0.00 | 0.00 | 0.00 | 83 | 1017.2 |
| 20260504204503 | 57 | 275 | 3.0 | 9.0 | 0.00 | 0.00 | 0.00 | 83 | 1017.0 |
| 20260504203002 | 57 | 267 | 2.0 | 7.0 | 0.00 | 0.00 | 0.00 | 83 | 1016.7 |
| 20260504201559 | 57 | 277 | 2.0 | 6.0 | 0.00 | 0.00 | 0.00 | 82 | 1016.4 |
| 20260504200100 | 57 | 294 | 2.0 | 6.0 | 0.00 | 0.00 | 0.00 | 82 | 1016.2 |
| 20260504194600 | 57 | 282 | 2.0 | 10.0 | 0.00 | 0.00 | 0.00 | 81 | 1016.0 |
| 20260504193100 | 57 | 308 | 1.0 | 9.0 | 0.00 | 0.00 | 0.00 | 80 | 1015.9 |
| 20260504191556 | 57 | 275 | 2.0 | 7.0 | 0.00 | 0.00 | 0.00 | 80 | 1015.8 |
| 20260504190050 | 57 | 254 | 3.0 | 9.0 | 0.00 | 0.00 | 0.00 | 80 | 1015.6 |
| 20260504184547 | 58 | 281 | 2.0 | 10.0 | 0.00 | 0.00 | 0.00 | 79 | 1015.4 |
| 20260504183046 | 58 | 267 | 1.0 | 8.0 | 0.00 | 0.00 | 0.00 | 79 | 1015.1 |
| 20260504181548 | 58 | 240 | 3.0 | 11.0 | 0.00 | 0.00 | 0.00 | 79 | 1015.1 |
| 20260504180049 | 58 | 254 | 1.0 | 9.0 | 0.00 | 0.00 | 0.00 | 79 | 1014.8 |
| 20260504174545 | 58 | 256 | 2.0 | 9.0 | 0.00 | 0.00 | 0.00 | 78 | 1014.8 |
| 20260504173042 | 58 | 293 | 3.0 | 11.0 | 0.00 | 0.00 | 0.00 | 77 | 1014.7 |
| 20260504171539 | 58 | 268 | 3.0 | 11.0 | 0.00 | 0.00 | 0.00 | 76 | 1014.5 |